OBJECT J, 57012

Orbit data source: Space-Track

You're viewing an Uncataloged Satellite

Recently launched and/or uncataloged satellites may have evolving metadata. Metadata may include but not limited to: Owner, Maufacturer, Bus, Motor, and Mission.

OBJECT J, 57012 is a Chinese satellite in SSO that was launched on Thu, 15 Jun 2023 UTC via a CHANG ZHENG 2D launch vehicle from the Taiyaun Space Center, China (TSC). Unknown objects in Earth's orbit typically refer to objects detected orbiting the Earth but have not yet been identified or cataloged. These objects could be anything from previously untracked satellites, spent rocket stages, debris from satellite collisions, or even natural meteoroids temporarily captured by Earth's gravity.

Loading next visibility...
Identifier
57012, 2023-085J
Orbit
SSO
Country
Flag of CNCN / PRC
Related business
None
Manufacturer
Unknown
Mission
Operational Commercial Imaging
Bus & Motor
Unknown
Mass
Unknown
Launch date (UTC)
2023-06-15 (3 years ago)
Launch vehicle
CHANG ZHENG 2D
Launch site
Taiyaun Space Center, China (TSC)
Object type
Unknown
Shape & HBR
Box, 0.8 m
Radar Cross Section
2.000 m², Medium (>0.1 m² and < 1m²)

Expand to show TLE details & history
Last TLE update: 2 days ago

TLE from 2 days ago
0 OBJECT J
1 57012U 23085J   26171.42176977  .00011778  00000-0  35371-3 0  9999
2 57012  97.4942 283.9545 0006122  37.5997 322.5673 15.34574094167261
Epoch: 2026-06-20T10:07Z
TLE epoch observation values (Epoch: 2026-06-20T10:07:20.908Z)
Latitude
0.00002°
Longitude
-136.51925°
Altitude
461.968 km
Speed
7.637 km/s
True Right ascension
18h 55m 49s
True Declination
0° 00' 00"
Sunlit
Object was in full shadow at epoch
Visualization orbit readout
Latitude
Unknown
Longitude
Unknown
Altitude
Unknown
Speed
Unknown
Apparent Right ascension
Unknown
Apparent Declination
Unknown
Sunlit
N/A
Visualization observer readout
Local Sidereal Time
21:24:37
Azimuth
Unknown
Elevation
Unknown
Doppler factor
Unknown
Orbital elements
Apogee altitude
463.322 km
Perigee altitude
454.95 km
Semi-major axis
6,837.273 km
Eccentricity
0.00061
Inclination
97.4942°
RAAN
283.9545°
Arg. of periapsis
37.5997°
True anomaly
322.52463°
Mean anomaly
322.5673°
Eccentric anomaly
322.54597°
Mean motion
3.83901 °/min
Orbital period
93.77 mins
BSTAR
0.00035371
Loading maneuver chart data...
Computing Atmospheric mass density...
Loading historical data...
Loading historical data...
Loading historical data...
Loading historical data...
Loading historical data...
Loading historical data...
Loading historical data...

Documentation

Showing up to 5 results
|